QPF
0.00 0.00 0.00 0.00 0.00 0.00 0.00 0.00 0.00 0.00 0.00 0.00 0.00 0.00 0.00 0.00 0.00 0.00 0.00 0.00 0.00 0.00 0.00 0.00 0.00 0.00 0.00 0.00 0.00 0.00 0.00 0.00 0.00 0.00 0.00 0.00 0.00 0.00 0.00 0.00 0.00 0.00 0.00 0.00 0.00 0.00 0.00 0.00 0.00
0.00 0.00 0.00 0.00 0.00 0.00 0.00 0.00 0.00 0.00 0.00 0.00 0.00 0.00 0.00 0.00 0.00 0.00 0.00 0.00 0.00 0.00 0.00 0.00 0.00 0.00 0.00 0.00 0.00 0.00 0.00 0.00 0.00 0.00 0.00 0.00 0.00 0.00 0.00 0.00 0.00 0.00 0.00 0.00 0.00 0.00 0.00 0.00 0.00
0.00 0.00 0.00 0.00 0.00 0.00 0.00 0.00 0.00 0.00 0.00 0.00 0.00 0.00 0.00 0.00 0.00 0.00 0.00 0.00 0.00 0.00 0.00 0.00 0.00 0.00 0.00 0.00 0.00 0.00 0.00 0.00 0.00 0.00 0.00 0.00 0.00 0.00 0.00 0.00 0.00 0.00 0.00 0.00 0.00 0.00 0.00 0.00 0.00
0.00 0.00 0.00 0.00 0.00 0.00 0.00 0.00 0.00 0.00 0.00 0.00 0.00 0.00 0.00 0.00 0.00 0.00 0.00 0.00 0.00 0.00 0.00 0.00 0.00 0.00 0.00 0.00 0.00 0.00 0.00 0.00 0.00 0.00 0.00 0.00 0.00 0.00 0.00 0.00 0.00 0.00 0.00 0.00 0.00 0.00 0.00 0.00 0.00
0.00 0.00 0.00 0.00 0.00 0.00 0.00 0.00 0.00 0.00 0.00 0.00 0.00 0.00 0.00 0.00 0.00 0.00 0.00 0.00 0.00 0.00 0.00 0.00 0.00 0.00 0.00 0.00 0.00 0.00 0.00 0.00 0.00 0.00 0.00 0.00 0.00 0.00 0.00 0.00 0.00 0.00 0.00 0.00 0.00 0.00 0.00 0.00 0.00
0.00 0.00 0.00 0.00 0.00 0.00 0.00 0.00 0.00 0.00 0.00 0.00 0.00 0.00 0.00 0.01 0.00 0.00 0.00 0.00 0.00 0.00 0.00 0.00 0.00 0.00 0.00 0.00 0.00 0.00 0.00 0.00 0.00 0.00 0.00 0.00 0.00 0.00 0.00 0.00 0.00 0.00 0.00 0.00 0.00 0.00 0.00 0.00 0.00
0.00 0.00 0.00 0.00 0.00 0.00 0.00 0.00 0.00 0.00 0.00 0.00 0.00 0.01 0.00 0.00 0.00 0.00 0.00 0.00 0.00 0.00 0.00 0.00 0.00 0.00 0.00 0.00 0.00 0.00 0.00 0.00 0.00 0.00 0.00 0.00 0.00 0.00 0.00 0.00 0.00 0.00 0.00 0.00 0.00 0.00 0.00 0.00 0.00
0.00 0.00 0.00 0.00 0.00 0.00 0.00 0.00 0.00 0.00 0.01 0.01 0.00 0.01 0.01 0.00 0.00 0.00 0.00 0.00 0.00 0.00 0.00 0.00 0.00 0.00 0.00 0.00 0.00 0.00 0.00 0.00 0.00 0.00 0.00 0.00 0.00 0.00 0.00 0.00 0.00 0.00 0.00 0.00 0.00 0.00 0.00 0.00 0.00
0.00 0.00 0.00 0.00 0.00 0.00 0.00 0.00 0.00 0.00 0.01 0.00 0.00 0.04 0.09 0.00 0.00 0.00 0.04 0.06 0.03 0.02 0.00 0.00 0.00 0.00 0.00 0.00 0.00 0.00 0.00 0.00 0.00 0.00 0.00 0.00 0.00 0.00 0.00 0.00 0.00 0.00 0.00 0.00 0.00 0.00 0.00 0.00 0.00
0.00 0.00 0.00 0.00 0.00 0.00 0.00 0.00 0.00 0.00 0.03 0.00 0.01 0.04 0.02 0.00 0.00 0.00 0.04 0.09 0.02 0.01 0.04 0.05 0.01 0.00 0.00 0.00 0.00 0.00 0.00 0.00 0.00 0.00 0.00 0.00 0.00 0.00 0.00 0.00 0.00 0.00 0.00 0.00 0.00 0.00 0.00 0.00 0.00
0.00 0.00 0.00 0.00 0.01 0.00 0.00 0.00 0.00 0.00 0.00 0.00 0.01 0.00 0.00 0.00 0.00 0.00 0.00 0.00 0.00 0.01 0.02 0.05 0.04 0.02 0.02 0.01 0.00 0.00 0.00 0.00 0.00 0.00 0.00 0.00 0.00 0.00 0.00 0.00 0.00 0.00 0.00 0.00 0.00 0.00 0.00 0.00 0.00
0.00 0.00 0.00 0.00 0.00 0.01 0.01 0.00 0.00 0.00 0.00 0.00 0.00 0.00 0.00 0.00 0.00 0.00 0.00 0.00 0.00 0.00 0.02 0.02 0.01 0.03 0.03 0.03 0.01 0.00 0.00 0.00 0.00 0.00 0.00 0.00 0.00 0.00 0.00 0.00 0.00 0.00 0.00 0.00 0.00 0.00 0.00 0.00 0.00
0.00 0.00 0.00 0.00 0.00 0.00 0.00 0.00 0.00 0.00 0.00 0.00 0.00 0.00 0.00 0.00 0.00 0.00 0.00 0.00 0.00 0.00 0.02 0.03 0.03 0.03 0.03 0.02 0.01 0.00 0.01 0.00 0.00 0.00 0.00 0.00 0.00 0.00 0.00 0.00 0.00 0.00 0.03 0.06 0.03 0.02 0.00 0.00 0.00
0.00 0.00 0.00 0.00 0.00 0.00 0.00 0.00 0.00 0.00 0.00 0.00 0.00 0.00 0.00 0.00 0.00 0.00 0.00 0.00 0.00 0.00 0.02 0.04 0.03 0.03 0.02 0.01 0.00 0.00 0.01 0.01 0.01 0.00 0.00 0.00 0.00 0.00 0.03 0.08 0.12 0.13 0.18 0.11 0.06 0.01 0.00 0.00 0.00
0.00 0.00 0.00 0.00 0.00 0.00 0.00 0.00 0.00 0.00 0.00 0.00 0.00 0.00 0.00 0.00 0.00 0.00 0.00 0.00 0.00 0.00 0.04 0.05 0.04 0.03 0.01 0.00 0.00 0.00 0.01 0.01 0.01 0.01 0.01 0.01 0.01 0.02 0.04 0.05 0.06 0.07 0.10 0.13 0.03 0.00 0.00 0.00 0.00
0.00 0.00 0.00 0.00 0.01 0.00 0.00 0.00 0.00 0.00 0.00 0.00 0.00 0.00 0.00 0.00 0.00 0.00 0.00 0.00 0.00 0.00 0.02 0.04 0.03 0.02 0.00 0.00 0.00 0.00 0.01 0.02 0.01 0.01 0.02 0.02 0.04 0.06 0.06 0.03 0.02 0.03 0.04 0.06 0.02 0.00 0.00 0.00 0.00
0.00 0.00 0.00 0.01 0.01 0.00 0.00 0.00 0.00 0.00 0.00 0.00 0.00 0.00 0.00 0.00 0.00 0.00 0.00 0.00 0.00 0.01 0.01 0.03 0.04 0.02 0.02 0.01 0.00 0.02 0.02 0.03 0.03 0.04 0.03 0.05 0.06 0.06 0.03 0.06 0.04 0.01 0.01 0.01 0.00 0.00 0.00 0.00 0.00
0.00 0.00 0.00 0.00 0.01 0.01 0.00 0.00 0.00 0.00 0.00 0.00 0.00 0.00 0.00 0.00 0.00 0.00 0.00 0.00 0.01 0.02 0.01 0.02 0.02 0.05 0.08 0.07 0.06 0.04 0.04 0.05 0.04 0.03 0.03 0.03 0.01 0.01 0.01 0.03 0.03 0.00 0.00 0.00 0.00 0.00 0.00 0.00 0.00
0.00 0.00 0.00 0.00 0.00 0.00 0.00 0.00 0.00 0.00 0.00 0.00 0.00 0.00 0.00 0.00 0.00 0.00 0.00 0.00 0.00 0.00 0.00 0.01 0.02 0.04 0.05 0.05 0.04 0.04 0.04 0.03 0.02 0.01 0.03 0.02 0.00 0.03 0.01 0.01 0.01 0.00 0.00 0.00 0.00 0.00 0.00 0.00 0.00
0.00 0.00 0.00 0.00 0.00 0.00 0.00 0.00 0.00 0.00 0.00 0.00 0.00 0.00 0.00 0.00 0.00 0.00 0.00 0.00 0.00 0.00 0.00 0.00 0.01 0.01 0.00 0.00 0.00 0.00 0.00 0.00 0.00 0.01 0.02 0.02 0.01 0.02 0.01 0.01 0.01 0.00 0.00 0.00 0.00 0.00 0.00 0.00 0.00
0.00 0.00 0.00 0.00 0.00 0.00 0.00 0.00 0.00 0.00 0.00 0.00 0.00 0.00 0.00 0.00 0.00 0.00 0.00 0.00 0.00 0.00 0.00 0.00 0.00 0.00 0.00 0.00 0.00 0.00 0.00 0.00 0.00 0.00 0.00 0.00 0.00 0.00 0.00 0.00 0.01 0.01 0.01 0.01 0.00 0.00 0.00 0.00 0.00
0.00 0.00 0.00 0.00 0.00 0.00 0.00 0.00 0.00 0.00 0.00 0.00 0.00 0.00 0.00 0.00 0.00 0.00 0.00 0.00 0.00 0.00 0.00 0.00 0.00 0.00 0.00 0.00 0.00 0.00 0.00 0.00 0.00 0.01 0.02 0.01 0.01 0.00 0.01 0.02 0.03 0.02 0.01 0.00 0.00 0.00 0.00 0.00 0.00
0.00 0.00 0.00 0.00 0.00 0.00 0.00 0.00 0.00 0.00 0.00 0.00 0.00 0.00 0.00 0.00 0.00 0.00 0.00 0.00 0.00 0.00 0.00 0.00 0.00 0.00 0.00 0.00 0.00 0.00 0.00 0.00 0.00 0.00 0.01 0.01 0.01 0.01 0.00 0.00 0.00 0.00 0.00 0.00 0.00 0.00 0.00 0.00 0.00
0.00 0.00 0.00 0.00 0.00 0.00 0.00 0.00 0.00 0.00 0.00 0.00 0.00 0.00 0.00 0.00 0.00 0.00 0.00 0.00 0.00 0.00 0.00 0.00 0.00 0.00 0.00 0.00 0.00 0.00 0.00 0.00 0.00 0.00 0.00 0.00 0.01 0.01 0.00 0.00 0.00 0.00 0.00 0.00 0.00 0.00 0.00 0.00 0.00
0.00 0.00 0.00 0.00 0.00 0.00 0.00 0.00 0.00 0.00 0.00 0.00 0.00 0.01 0.01 0.01 0.00 0.00 0.00 0.00 0.00 0.00 0.00 0.00 0.00 0.00 0.00 0.00 0.00 0.00 0.00 0.00 0.00 0.00 0.00 0.00 0.00 0.00 0.00 0.00 0.00 0.00 0.00 0.00 0.00 0.00 0.00 0.00 0.00
0.00 0.00 0.00 0.00 0.00 0.00 0.00 0.00 0.00 0.00 0.00 0.00 0.00 0.00 0.00 0.00 0.00 0.00 0.00 0.00 0.00 0.00 0.00 0.00 0.00 0.00 0.00 0.00 0.00 0.00 0.00 0.00 0.00 0.00 0.00 0.00 0.00 0.00 0.00 0.00 0.00 0.00 0.00 0.00 0.00 0.00 0.00 0.00 0.00
0.00 0.00 0.00 0.00 0.00 0.00 0.00 0.00 0.00 0.00 0.00 0.00 0.00 0.00 0.00 0.00 0.00 0.00 0.00 0.00 0.00 0.00 0.00 0.00 0.00 0.00 0.00 0.00 0.00 0.00 0.00 0.00 0.00 0.00 0.00 0.00 0.00 0.00 0.00 0.00 0.00 0.00 0.00 0.00 0.00 0.00 0.00 0.00 0.00
0.00 0.00 0.00 0.00 0.00 0.00 0.00 0.00 0.00 0.00 0.00 0.00 0.00 0.00 0.00 0.00 0.00 0.00 0.00 0.00 0.00 0.00 0.00 0.00 0.00 0.00 0.00 0.00 0.00 0.00 0.00 0.00 0.00 0.00 0.00 0.00 0.00 0.00 0.00 0.00 0.00 0.01 0.01 0.01 0.01 0.02 0.02 0.01 0.01
0.00 0.00 0.00 0.00 0.00 0.00 0.00 0.00 0.00 0.00 0.00 0.00 0.00 0.00 0.00 0.00 0.00 0.00 0.00 0.00 0.00 0.00 0.00 0.00 0.00 0.00 0.00 0.00 0.00 0.00 0.00 0.00 0.00 0.00 0.00 0.00 0.00 0.00 0.00 0.00 0.01 0.03 0.04 0.05 0.05 0.05 0.04 0.03 0.01
0.00 0.00 0.00 0.00 0.00 0.00 0.00 0.00 0.00 0.00 0.00 0.00 0.00 0.00 0.00 0.00 0.00 0.00 0.00 0.00 0.00 0.00 0.00 0.00 0.00 0.00 0.00 0.00 0.00 0.00 0.00 0.00 0.00 0.00 0.00 0.00 0.00 0.00 0.00 0.00 0.00 0.00 0.01 0.02 0.03 0.04 0.03 0.03 0.03
MSLP
1010.25 1010.52 1010.88 1010.96 1011.40 1011.29 1011.48 1010.28 1009.50 1009.58 1009.25 1008.78 1008.52 1008.57 1009.21 1009.31 1009.47 1009.98 1009.56 1009.61 1009.35 1009.79 1010.14 1010.83 1011.06 1011.34 1011.52 1011.62 1011.78 1012.00 1012.29 1012.57 1012.86 1013.13 1013.44 1013.78 1014.12 1014.40 1014.60 1014.80 1014.95 1014.97 1014.98 1014.99 1015.07 1015.26 1015.42 1015.53 1015.60
1010.26 1010.89 1011.09 1010.88 1011.24 1011.98 1011.32 1009.88 1009.13 1009.56 1009.18 1008.89 1008.69 1008.90 1008.98 1009.01 1008.81 1009.19 1009.46 1009.95 1009.75 1009.90 1010.23 1010.69 1011.17 1011.48 1011.72 1011.83 1012.02 1012.24 1012.41 1012.75 1013.05 1013.29 1013.60 1013.89 1014.22 1014.50 1014.77 1014.96 1015.10 1015.20 1015.25 1015.29 1015.37 1015.51 1015.68 1015.78 1015.86
1010.16 1010.26 1010.92 1011.06 1011.46 1011.63 1011.02 1009.66 1008.84 1009.57 1009.20 1008.86 1008.80 1008.59 1009.03 1009.07 1008.70 1009.07 1009.13 1009.87 1009.91 1010.25 1010.47 1010.63 1011.03 1011.47 1011.69 1011.85 1012.07 1012.34 1012.66 1012.88 1013.21 1013.46 1013.68 1014.03 1014.37 1014.61 1014.90 1015.11 1015.25 1015.37 1015.44 1015.47 1015.52 1015.60 1015.70 1015.78 1015.88
1009.86 1010.53 1011.11 1010.95 1011.07 1010.31 1010.06 1008.92 1008.80 1009.05 1009.19 1009.07 1009.08 1009.26 1009.01 1008.39 1008.42 1008.67 1009.03 1009.51 1010.00 1010.51 1010.62 1010.95 1011.25 1011.52 1011.79 1011.94 1012.19 1012.43 1012.75 1012.97 1013.10 1013.44 1013.67 1013.98 1014.39 1014.63 1014.87 1015.12 1015.23 1015.36 1015.49 1015.57 1015.61 1015.67 1015.74 1015.85 1015.97
1009.88 1010.80 1011.65 1011.51 1010.93 1010.00 1009.35 1008.57 1008.29 1009.22 1009.84 1009.22 1008.78 1009.18 1008.97 1008.23 1008.53 1008.92 1009.51 1009.59 1010.02 1010.67 1010.83 1011.20 1011.25 1011.70 1011.97 1012.19 1012.38 1012.57 1012.84 1013.12 1013.33 1013.44 1013.65 1013.96 1014.36 1014.65 1014.79 1014.98 1015.13 1015.33 1015.53 1015.60 1015.69 1015.79 1015.88 1015.94 1016.01
1010.34 1011.37 1012.13 1011.87 1011.00 1009.62 1008.63 1008.60 1008.76 1009.29 1009.47 1009.45 1009.20 1008.86 1008.50 1008.15 1008.40 1009.10 1009.68 1010.24 1010.95 1011.10 1011.16 1011.50 1011.73 1011.96 1012.13 1012.31 1012.65 1012.98 1013.19 1013.32 1013.44 1013.65 1013.81 1013.94 1014.31 1014.73 1014.88 1015.06 1015.24 1015.41 1015.53 1015.62 1015.71 1015.81 1015.92 1015.99 1016.01
1010.62 1011.68 1012.00 1011.57 1010.78 1009.59 1008.56 1008.14 1009.00 1009.24 1009.84 1009.02 1008.88 1008.71 1008.15 1008.51 1008.84 1009.46 1010.27 1010.88 1011.09 1011.70 1011.96 1012.07 1012.42 1012.51 1012.59 1012.80 1013.02 1013.39 1013.52 1013.62 1013.75 1013.92 1014.00 1014.16 1014.37 1014.66 1015.03 1015.18 1015.30 1015.39 1015.53 1015.61 1015.74 1015.84 1015.90 1015.88 1015.90
1010.63 1011.68 1012.03 1011.38 1010.72 1009.64 1008.65 1008.15 1008.79 1008.86 1009.66 1008.74 1008.67 1008.48 1008.14 1008.74 1009.05 1009.87 1010.75 1011.34 1011.72 1012.05 1012.50 1012.66 1012.68 1013.01 1013.30 1013.29 1013.22 1013.39 1013.63 1013.79 1013.99 1014.14 1014.25 1014.38 1014.51 1014.78 1015.02 1015.17 1015.28 1015.34 1015.46 1015.54 1015.61 1015.67 1015.66 1015.66 1015.72
1010.39 1011.60 1012.04 1011.14 1010.38 1009.78 1008.86 1008.33 1008.40 1008.74 1009.42 1009.29 1008.87 1008.26 1007.50 1008.20 1009.16 1010.20 1010.77 1011.41 1011.74 1012.15 1012.59 1012.87 1012.96 1013.02 1013.12 1013.30 1013.52 1013.72 1013.88 1014.17 1014.24 1014.33 1014.49 1014.60 1014.81 1014.91 1015.01 1015.15 1015.24 1015.35 1015.36 1015.44 1015.49 1015.51 1015.54 1015.55 1015.50
1010.77 1011.66 1011.46 1010.42 1009.96 1009.50 1008.96 1008.27 1008.78 1008.82 1009.74 1009.56 1009.51 1009.72 1008.65 1009.01 1009.08 1010.03 1010.47 1010.72 1011.28 1012.04 1012.35 1012.57 1012.61 1012.88 1013.03 1013.16 1013.45 1013.64 1013.87 1014.13 1014.42 1014.60 1014.71 1014.82 1014.92 1015.03 1015.17 1015.25 1015.22 1015.23 1015.33 1015.41 1015.43 1015.43 1015.42 1015.42 1015.45
1010.76 1011.01 1010.72 1009.96 1009.93 1009.66 1009.47 1008.58 1007.74 1008.70 1009.34 1009.06 1009.03 1008.99 1008.96 1009.28 1009.32 1009.96 1009.92 1010.11 1010.33 1011.32 1011.87 1012.29 1012.79 1013.15 1013.34 1013.40 1013.63 1013.87 1013.97 1014.20 1014.38 1014.60 1014.80 1014.94 1015.03 1015.17 1015.21 1015.29 1015.31 1015.27 1015.23 1015.25 1015.22 1015.33 1015.38 1015.35 1015.39
1010.46 1010.23 1010.18 1009.72 1009.46 1009.47 1009.33 1008.67 1008.66 1008.18 1008.13 1008.43 1008.11 1008.38 1008.91 1009.26 1009.54 1009.64 1009.85 1009.95 1010.45 1011.05 1012.08 1012.54 1012.79 1012.77 1012.77 1012.99 1013.48 1014.15 1013.93 1013.95 1014.15 1014.46 1014.73 1014.86 1015.07 1015.21 1015.27 1015.19 1015.15 1015.15 1015.09 1015.03 1015.14 1015.13 1015.26 1015.24 1015.22
1010.25 1009.87 1009.83 1009.38 1009.19 1008.76 1008.86 1009.17 1008.96 1008.56 1007.37 1007.69 1008.26 1008.17 1009.00 1009.37 1009.38 1008.91 1008.99 1009.59 1010.42 1011.11 1012.03 1012.42 1012.90 1013.00 1013.19 1013.40 1013.58 1013.91 1013.67 1013.69 1013.85 1014.12 1014.51 1014.76 1015.01 1015.19 1015.02 1015.03 1015.04 1015.03 1015.00 1015.16 1015.24 1015.13 1015.22 1015.45 1015.45
1009.83 1009.71 1009.56 1009.32 1009.17 1009.00 1008.65 1008.52 1009.33 1008.28 1007.93 1009.07 1008.50 1008.91 1009.09 1009.23 1009.34 1009.62 1009.59 1009.85 1010.20 1010.78 1011.31 1011.96 1012.45 1012.91 1012.95 1013.65 1013.46 1013.80 1013.62 1013.52 1014.00 1014.36 1014.47 1014.48 1014.60 1014.84 1014.97 1014.99 1015.01 1015.05 1014.95 1015.25 1015.01 1015.11 1015.42 1015.71 1015.65
1009.87 1009.87 1009.51 1009.20 1009.25 1009.00 1008.68 1008.64 1007.96 1007.71 1007.71 1008.17 1009.30 1009.17 1008.67 1010.14 1010.22 1009.58 1009.98 1009.84 1009.82 1010.18 1011.12 1011.68 1012.44 1012.86 1013.28 1013.37 1013.40 1013.62 1013.77 1013.74 1013.95 1014.10 1014.24 1014.55 1014.42 1014.69 1014.83 1014.97 1015.20 1014.97 1015.04 1015.37 1015.45 1015.51 1015.64 1015.91 1015.86
1010.48 1010.43 1010.22 1009.90 1009.45 1009.10 1008.80 1008.81 1007.92 1007.25 1008.22 1008.89 1009.20 1009.82 1010.75 1011.16 1011.21 1011.02 1011.19 1010.41 1010.26 1010.44 1010.90 1011.66 1012.42 1012.59 1013.02 1013.32 1013.73 1013.65 1013.61 1013.77 1013.87 1014.13 1014.38 1014.49 1014.55 1014.67 1014.79 1015.13 1015.19 1015.27 1015.34 1015.44 1015.70 1015.95 1016.11 1016.13 1015.99
1011.63 1011.30 1010.86 1010.29 1009.67 1009.61 1009.62 1009.12 1008.43 1008.06 1008.01 1009.09 1010.10 1010.79 1011.64 1011.83 1011.77 1011.97 1011.93 1011.40 1011.37 1011.86 1011.35 1011.65 1012.26 1012.69 1013.15 1013.70 1013.53 1013.48 1013.59 1013.86 1014.27 1014.26 1014.48 1014.58 1014.52 1014.71 1014.74 1015.48 1015.59 1015.48 1015.64 1015.68 1016.00 1016.24 1016.26 1016.39 1016.07
1012.05 1011.67 1011.22 1010.88 1010.26 1010.22 1010.54 1010.08 1010.08 1009.28 1009.11 1009.58 1010.26 1011.74 1012.53 1012.99 1013.17 1013.62 1013.13 1012.72 1012.94 1012.81 1012.85 1013.26 1013.38 1013.52 1013.40 1013.71 1013.80 1013.96 1014.10 1014.27 1014.38 1014.25 1014.49 1014.66 1014.53 1014.81 1015.16 1015.28 1015.78 1015.83 1015.92 1016.24 1016.42 1016.62 1016.69 1016.73 1016.26
1011.58 1011.65 1011.46 1010.84 1010.25 1010.32 1010.59 1011.61 1011.88 1010.74 1010.73 1011.57 1011.78 1012.99 1013.55 1014.44 1014.52 1014.60 1014.69 1014.47 1014.03 1013.84 1014.08 1014.45 1014.16 1014.57 1014.19 1014.36 1014.47 1014.44 1014.68 1014.76 1014.93 1014.75 1014.42 1014.47 1014.66 1014.90 1015.07 1015.24 1015.67 1015.84 1016.31 1016.79 1016.68 1016.98 1017.03 1016.86 1016.48
1011.47 1011.57 1011.40 1010.82 1010.47 1010.60 1011.72 1013.32 1013.05 1012.98 1013.43 1013.79 1014.37 1014.75 1015.08 1015.61 1015.53 1015.73 1015.51 1015.34 1015.42 1015.33 1015.45 1015.60 1015.82 1015.78 1015.51 1015.34 1015.27 1015.09 1015.44 1015.60 1015.52 1015.32 1014.94 1014.83 1014.74 1014.73 1014.88 1015.11 1015.73 1016.03 1016.41 1016.64 1016.73 1017.26 1017.23 1017.13 1016.98
1011.07 1011.23 1011.11 1011.13 1011.13 1011.52 1012.35 1014.05 1014.90 1015.44 1015.57 1015.72 1016.24 1016.70 1016.62 1017.14 1017.18 1017.22 1017.16 1017.07 1016.83 1016.85 1016.81 1016.78 1016.63 1016.43 1016.32 1016.23 1015.96 1015.67 1015.53 1015.89 1016.12 1015.94 1015.87 1015.45 1015.16 1014.96 1015.05 1015.19 1015.22 1015.55 1016.02 1016.39 1016.66 1017.07 1017.42 1017.41 1017.16
1010.91 1010.93 1011.15 1011.54 1012.17 1013.05 1013.36 1015.47 1017.06 1017.76 1017.80 1017.82 1018.36 1018.26 1018.46 1018.62 1018.83 1018.93 1019.02 1019.14 1019.05 1019.01 1018.42 1018.05 1017.92 1017.68 1017.57 1017.28 1016.77 1016.36 1015.95 1016.02 1016.16 1016.14 1016.09 1015.92 1015.69 1015.39 1014.91 1014.89 1015.15 1015.31 1015.22 1015.21 1015.56 1015.62 1016.27 1016.08 1016.87
1011.22 1011.23 1012.11 1012.66 1013.65 1014.46 1015.12 1016.44 1018.90 1018.96 1019.59 1019.96 1020.04 1019.86 1020.09 1020.32 1020.33 1020.46 1020.47 1020.60 1020.56 1020.25 1019.98 1019.83 1019.45 1019.02 1018.97 1018.42 1017.99 1018.00 1016.94 1016.56 1016.40 1016.02 1015.67 1015.44 1015.20 1015.17 1015.19 1015.05 1014.96 1015.14 1015.33 1015.47 1015.48 1015.68 1015.55 1015.76 1015.99
1011.49 1012.30 1013.61 1014.56 1015.49 1016.61 1017.27 1018.31 1020.53 1020.75 1021.31 1021.60 1021.42 1021.41 1021.61 1021.66 1021.66 1021.56 1021.48 1021.23 1021.18 1021.14 1021.02 1020.77 1020.35 1019.96 1019.59 1019.41 1019.16 1018.91 1017.98 1017.44 1017.29 1017.07 1016.54 1015.98 1015.44 1015.20 1015.15 1015.15 1015.00 1014.97 1015.06 1015.49 1015.20 1015.11 1015.17 1015.42 1015.66
1012.24 1013.86 1015.41 1016.62 1017.36 1018.38 1018.45 1019.71 1022.36 1022.23 1022.44 1022.72 1022.62 1022.63 1022.77 1022.66 1022.47 1022.42 1022.26 1022.38 1022.37 1022.07 1021.78 1021.53 1021.29 1020.78 1020.35 1020.04 1019.87 1019.57 1018.45 1018.29 1018.33 1017.72 1017.20 1016.61 1016.31 1015.53 1015.01 1015.12 1015.13 1014.77 1014.92 1014.83 1014.86 1015.05 1014.97 1015.09 1015.36
1013.49 1014.77 1016.24 1017.62 1018.87 1019.35 1019.42 1021.36 1022.75 1023.21 1023.30 1023.44 1023.56 1023.71 1023.50 1023.42 1023.49 1023.47 1023.54 1023.34 1023.01 1022.41 1022.11 1022.12 1022.08 1021.88 1021.44 1020.97 1020.34 1019.71 1019.49 1019.30 1018.79 1018.07 1017.44 1016.80 1016.32 1015.85 1015.56 1015.27 1014.95 1014.76 1014.61 1014.64 1014.79 1014.76 1014.60 1014.66 1014.79
1013.99 1015.29 1016.37 1018.06 1019.68 1020.26 1021.42 1022.72 1023.15 1023.63 1023.91 1024.12 1024.30 1024.30 1024.39 1024.33 1024.14 1023.98 1023.82 1023.66 1023.35 1023.31 1023.32 1022.99 1022.61 1022.00 1021.51 1021.09 1020.79 1020.44 1019.95 1019.48 1019.03 1018.34 1017.78 1017.23 1016.65 1016.13 1015.50 1015.11 1014.97 1014.91 1014.84 1014.77 1014.81 1014.86 1014.75 1014.68 1014.78
1014.27 1015.79 1017.07 1018.58 1020.49 1021.55 1021.91 1022.58 1022.76 1023.79 1024.46 1024.67 1024.76 1024.94 1024.90 1024.82 1024.68 1024.44 1024.14 1024.00 1023.76 1023.58 1023.29 1022.94 1022.35 1021.60 1021.30 1021.07 1020.75 1020.22 1019.84 1019.45 1018.99 1018.42 1017.86 1017.30 1016.76 1016.26 1015.74 1015.23 1014.78 1014.55 1014.55 1014.65 1014.74 1014.87 1014.83 1014.72 1014.79
1015.69 1016.66 1018.15 1019.51 1020.82 1021.91 1022.77 1022.82 1022.67 1023.86 1024.72 1025.27 1025.46 1025.43 1025.42 1025.31 1025.19 1025.13 1024.91 1024.63 1024.21 1023.69 1023.15 1022.61 1022.21 1021.86 1021.33 1020.81 1020.27 1019.86 1019.46 1019.08 1018.72 1018.33 1017.86 1017.40 1016.82 1016.26 1015.72 1015.26 1014.82 1014.51 1014.45 1014.43 1014.53 1014.58 1014.66 1014.57 1014.78
1016.70 1017.73 1018.84 1020.31 1021.74 1022.47 1022.94 1023.28 1023.52 1024.27 1024.93 1025.37 1025.73 1025.85 1025.78 1025.80 1025.76 1025.53 1025.20 1024.79 1024.44 1024.12 1023.70 1023.27 1022.72 1022.12 1021.50 1020.97 1020.51 1020.07 1019.56 1019.12 1018.63 1018.11 1017.59 1017.08 1016.56 1016.04 1015.59 1015.08 1014.65 1014.32 1014.10 1014.11 1014.12 1014.33 1014.58 1014.62 1014.72
Thickness
5810 5810 5808 5798 5774 5764 5755 5773 5795 5790 5792 5807 5809 5802 5794 5797 5797 5781 5825 5831 5838 5835 5831 5824 5822 5819 5819 5819 5818 5817 5815 5813 5810 5808 5805 5802 5799 5797 5795 5793 5791 5791 5791 5791 5791 5789 5788 5787 5786
5810 5805 5800 5787 5756 5733 5749 5786 5787 5790 5803 5810 5808 5799 5796 5794 5819 5818 5821 5828 5833 5833 5830 5825 5820 5818 5816 5816 5815 5814 5814 5811 5808 5807 5804 5801 5798 5796 5793 5791 5789 5788 5788 5788 5787 5785 5784 5783 5782
5808 5807 5786 5768 5740 5736 5751 5787 5793 5795 5801 5805 5805 5814 5803 5802 5822 5819 5832 5828 5829 5828 5825 5824 5821 5817 5815 5814 5813 5811 5809 5808 5806 5803 5802 5799 5796 5794 5791 5788 5787 5785 5785 5784 5784 5783 5783 5782 5781
5802 5793 5781 5754 5749 5769 5777 5793 5798 5800 5802 5806 5806 5800 5812 5828 5826 5829 5832 5831 5826 5824 5822 5819 5818 5816 5813 5812 5811 5809 5806 5805 5805 5802 5800 5798 5794 5792 5790 5787 5786 5784 5783 5782 5781 5781 5780 5779 5778
5796 5778 5748 5743 5747 5768 5784 5795 5805 5794 5788 5799 5809 5800 5803 5824 5830 5826 5821 5828 5827 5823 5821 5819 5819 5814 5811 5810 5809 5807 5805 5803 5801 5800 5799 5795 5791 5789 5788 5786 5785 5783 5780 5780 5778 5777 5775 5775 5774
5773 5767 5734 5729 5743 5767 5789 5792 5799 5791 5793 5799 5801 5800 5809 5828 5826 5822 5822 5819 5817 5817 5817 5814 5812 5810 5809 5808 5805 5802 5800 5799 5798 5796 5795 5794 5789 5785 5784 5782 5781 5779 5778 5776 5775 5773 5772 5771 5771
5763 5747 5736 5744 5746 5752 5779 5794 5784 5786 5781 5798 5809 5802 5813 5819 5824 5823 5817 5815 5815 5809 5807 5808 5803 5803 5802 5801 5800 5796 5795 5794 5794 5792 5791 5789 5787 5783 5779 5778 5777 5776 5774 5773 5771 5769 5768 5768 5767
5760 5748 5743 5746 5741 5747 5771 5786 5786 5783 5776 5808 5810 5797 5801 5816 5823 5819 5812 5808 5806 5805 5801 5798 5798 5796 5793 5794 5795 5793 5792 5790 5789 5787 5786 5784 5782 5778 5776 5774 5772 5772 5771 5770 5768 5766 5766 5765 5764
5766 5729 5723 5746 5745 5754 5764 5772 5789 5789 5776 5790 5800 5809 5822 5822 5818 5810 5806 5803 5802 5801 5798 5795 5793 5792 5792 5791 5789 5786 5785 5782 5782 5781 5779 5778 5776 5774 5772 5769 5768 5766 5767 5765 5764 5763 5762 5761 5761
5741 5720 5730 5757 5763 5759 5760 5772 5768 5774 5766 5773 5781 5789 5809 5814 5813 5804 5802 5802 5801 5795 5796 5795 5797 5794 5790 5787 5785 5782 5780 5778 5775 5773 5772 5771 5769 5768 5765 5763 5763 5763 5761 5760 5759 5758 5757 5756 5756
5736 5727 5741 5756 5755 5761 5754 5758 5777 5767 5757 5771 5773 5785 5798 5802 5806 5801 5804 5806 5805 5801 5798 5794 5788 5783 5781 5780 5777 5774 5773 5769 5769 5767 5766 5765 5763 5761 5759 5757 5757 5757 5757 5756 5755 5753 5752 5752 5751
5731 5745 5743 5755 5756 5756 5754 5762 5759 5768 5768 5779 5789 5791 5791 5793 5797 5800 5800 5802 5799 5797 5787 5787 5787 5786 5784 5780 5773 5766 5768 5767 5766 5764 5761 5759 5756 5754 5752 5752 5752 5752 5752 5751 5749 5747 5745 5744 5744
5725 5741 5741 5752 5754 5762 5761 5740 5746 5757 5781 5783 5784 5787 5783 5783 5789 5803 5807 5802 5794 5788 5781 5781 5779 5776 5773 5770 5765 5764 5766 5765 5762 5760 5755 5752 5748 5747 5747 5746 5745 5744 5744 5741 5739 5738 5737 5735 5734
5728 5735 5741 5745 5749 5750 5753 5753 5738 5753 5766 5757 5765 5772 5775 5781 5784 5786 5790 5789 5789 5787 5782 5776 5773 5769 5766 5760 5762 5758 5758 5758 5753 5749 5747 5745 5744 5740 5738 5738 5737 5736 5736 5731 5732 5730 5728 5725 5723
5726 5724 5734 5743 5743 5743 5750 5741 5741 5772 5768 5756 5759 5769 5779 5763 5772 5783 5779 5782 5784 5782 5775 5770 5763 5760 5754 5753 5752 5748 5745 5746 5743 5742 5740 5736 5737 5733 5730 5730 5727 5728 5726 5721 5719 5716 5715 5712 5711
5710 5709 5700 5725 5732 5739 5739 5712 5752 5768 5754 5744 5757 5756 5754 5756 5760 5763 5761 5771 5776 5775 5770 5765 5759 5755 5750 5746 5741 5740 5740 5738 5735 5731 5728 5727 5726 5723 5721 5720 5717 5716 5714 5711 5706 5702 5699 5699 5698
5684 5683 5695 5706 5726 5730 5729 5727 5747 5759 5754 5745 5735 5743 5740 5744 5747 5747 5752 5759 5758 5755 5760 5759 5754 5750 5744 5738 5736 5734 5731 5728 5723 5722 5720 5717 5716 5714 5713 5706 5704 5703 5701 5700 5695 5689 5688 5685 5687
5676 5683 5690 5691 5716 5717 5710 5718 5721 5736 5742 5740 5740 5731 5728 5725 5725 5728 5737 5742 5740 5740 5741 5738 5737 5734 5734 5729 5726 5723 5720 5717 5715 5715 5712 5708 5707 5703 5699 5697 5692 5690 5687 5683 5679 5676 5673 5671 5673
5692 5687 5686 5698 5711 5720 5714 5697 5704 5720 5725 5720 5724 5716 5715 5709 5711 5713 5716 5721 5727 5728 5724 5720 5722 5718 5718 5714 5712 5712 5708 5707 5702 5701 5700 5698 5693 5690 5690 5687 5682 5678 5673 5666 5665 5661 5658 5656 5658
5688 5683 5681 5698 5713 5714 5700 5682 5696 5700 5701 5701 5697 5698 5698 5696 5700 5700 5703 5706 5705 5707 5704 5702 5699 5698 5700 5699 5697 5697 5692 5688 5687 5685 5685 5682 5682 5680 5678 5675 5668 5665 5659 5656 5652 5644 5641 5639 5639
5688 5682 5688 5692 5702 5706 5699 5678 5675 5679 5682 5684 5682 5681 5683 5678 5680 5680 5683 5684 5687 5685 5685 5685 5687 5687 5686 5684 5684 5685 5683 5676 5673 5672 5670 5670 5670 5668 5665 5662 5660 5656 5651 5645 5640 5633 5627 5624 5623
5685 5701 5701 5698 5685 5670 5690 5655 5654 5654 5658 5662 5659 5662 5662 5663 5661 5661 5659 5658 5660 5660 5665 5668 5668 5668 5669 5669 5670 5672 5672 5667 5664 5662 5657 5656 5654 5653 5655 5652 5648 5645 5644 5640 5636 5635 5625 5622 5612
5689 5698 5688 5687 5669 5666 5660 5642 5633 5644 5640 5638 5641 5645 5643 5642 5643 5642 5641 5641 5641 5643 5644 5645 5648 5651 5649 5651 5651 5648 5655 5655 5652 5653 5653 5649 5647 5642 5638 5638 5635 5632 5628 5624 5622 5618 5615 5611 5605
5692 5681 5662 5652 5643 5624 5640 5630 5618 5619 5627 5624 5626 5627 5626 5626 5626 5627 5627 5628 5628 5627 5627 5629 5631 5633 5634 5633 5631 5630 5636 5637 5634 5631 5631 5631 5631 5628 5623 5620 5620 5617 5614 5606 5606 5604 5599 5594 5589
5673 5652 5624 5627 5614 5611 5631 5616 5590 5604 5610 5610 5610 5612 5611 5611 5612 5611 5611 5609 5609 5610 5612 5613 5612 5615 5616 5616 5613 5611 5616 5614 5610 5612 5612 5612 5610 5612 5612 5606 5601 5601 5596 5594 5590 5585 5582 5577 5571
5654 5644 5615 5623 5602 5608 5619 5598 5585 5595 5598 5600 5601 5599 5601 5600 5599 5597 5593 5593 5594 5599 5600 5597 5594 5592 5592 5593 5595 5598 5595 5592 5590 5592 5593 5595 5593 5591 5587 5585 5584 5581 5578 5574 5569 5566 5563 5558 5555
5655 5633 5639 5608 5601 5598 5591 5584 5590 5590 5588 5589 5589 5591 5587 5585 5587 5586 5587 5585 5583 5581 5579 5577 5577 5578 5578 5578 5576 5574 5573 5571 5570 5570 5569 5570 5570 5572 5572 5570 5567 5563 5559 5556 5552 5549 5545 5541 5536
5656 5644 5624 5606 5601 5595 5595 5589 5587 5585 5580 5581 5578 5577 5577 5576 5575 5574 5575 5572 5570 5568 5567 5566 5567 5570 5567 5563 5559 5558 5555 5553 5551 5550 5549 5549 5549 5548 5549 5550 5550 5549 5545 5540 5535 5531 5528 5525 5520
5630 5626 5609 5602 5591 5582 5576 5587 5588 5577 5573 5568 5564 5567 5564 5562 5558 5556 5553 5552 5552 5552 5552 5552 5551 5547 5546 5545 5544 5542 5540 5536 5532 5529 5526 5524 5526 5527 5529 5531 5532 5531 5529 5526 5521 5517 5512 5509 5503
5629 5619 5605 5582 5601 5572 5572 5578 5577 5566 5564 5561 5556 5553 5551 5546 5541 5539 5538 5537 5537 5534 5532 5530 5529 5530 5528 5527 5526 5523 5521 5517 5515 5513 5511 5508 5507 5508 5509 5511 5514 5515 5514 5510 5507 5502 5496 5491 5487